Location: Deauville
(49.3568°N, 0.0677°E)
Time: 06:38:49
(UTC+00:00)

Daily predictions for brighter satellites

Satellite Brightness Start Highest point End
(mag) Time Altitude Azimuth Time Altitude Azimuth Time Altitude Azimuth
USA 116 3.8 18:31:32 10° NNE 18:34:50 43° E 18:38:27 10° S
Okean 2 3.4 18:31:00 10° N 18:35:12 83° E 18:39:22 10° S
Cosmos 1544 3.1 18:31:43 10° S 18:35:23 86° W 18:39:03 10° N
Okean-O 3.1 18:32:20 10° S 18:36:45 66° WSW 18:41:11 10° NNW
NOSS 2-2 (D) 4.2 18:37:21 10° S 18:40:16 25° ESE 18:43:24 10° ENE
CENTAUR R/B 3.7 18:36:27 10° NW 18:43:47 45° NNE 18:51:58 10° ESE
SKYMED 2 4.4 18:39:32 10° N 18:43:49 56° WNW 18:48:04 10° SSW
Iridium 4 Rocket 3.6 18:39:59 10° S 18:44:57 87° E 18:50:27 10° N
Cosmos 2082 Rocket 4.4 18:44:45 10° NNE 18:45:37 10° NNE 18:46:29 10° NNE
GP-B 3.8 18:41:22 10° N 18:45:46 61° W 18:50:08 10° SSW
YAOGAN 1 2.9 18:41:46 10° S 18:46:05 72° WSW 18:50:26 10° NNW
Cosmos 1975 2.8 18:42:22 10° S 18:46:28 84° E 18:50:34 10° N
Cosmos 1437 2.7 18:46:50 10° NNW 18:49:50 76° W 18:52:49 10° S
Cosmos 1674 4.4 18:47:32 10° NNE 18:50:05 17° ENE 18:52:10 12° ESE
H-2A R/B 2.0 18:45:19 10° SSE 18:50:15 71° ENE 18:55:20 10° N
DMSP B5D1-3 4.5 18:45:13 10° NNE 18:50:18 65° ESE 18:55:21 10° S
ATLAS 3B R/B 4.0 18:44:47 10° NW 18:50:26 27° NNE 18:56:12 10° ENE
SJ-11-01 4.3 18:46:08 10° SSE 18:50:50 77° ENE 18:55:33 10° N
CZ-4 R/B 2.4 18:47:22 10° S 18:51:29 53° W 18:55:37 10° NNW
ISS -2.4 18:51:13 10° SSW 18:53:59 24° SE 18:56:09 13° E
Cosmos 1536 Rocket 4.5 18:50:48 10° N 18:54:44 30° ENE 18:58:41 10° SE
Cosmos 1842 3.8 18:51:44 10° NNW 18:55:34 62° W 18:59:22 10° S
USA 238 DEB 4.1 18:48:32 10° NW 18:55:34 57° NE 19:02:31 12° ESE
USA 238 4.1 18:48:38 10° NW 18:55:40 57° NE 19:02:35 12° ESE
In-Cosmos 22 4.4 18:52:13 10° N 18:57:20 47° ENE 19:02:28 10° SE
ARGOS 3.1 18:58:28 10° SSE 19:03:48 73° ENE 19:09:11 10° N
Cosmos 1025 Rocket 3.3 19:00:36 10° N 19:04:51 47° ENE 19:09:05 10° SSE
CZ-2C R/B 3.3 19:00:27 10° NNE 19:05:26 33° E 19:10:27 10° SSE
Cosmos 990 Rocket 4.5 19:01:00 10° SW 19:06:05 65° WNW 19:11:15 10° NNE
Cosmos 1782 Rocket 3.8 19:02:15 10° SSW 19:06:40 77° W 19:11:09 10° N
Cosmos 1707 2.6 19:04:19 10° N 19:08:10 69° E 19:11:59 10° SSE
Cosmos 2151 Rocket 4.2 19:07:33 10° SSE 19:11:37 36° E 19:15:43 10° NNE
USA 186 1.8 19:13:02 12° SSE 19:15:46 54° ENE 19:18:58 10° N
CREW DRAGON DEMO-1 DEB 3.3 19:13:14 10° WNW 19:16:14 53° N 19:18:00 21° ENE
Ariane Rocket 3.0 19:13:46 10° SSE 19:18:45 61° ENE 19:23:47 10° N
SJ-6B 3.0 19:16:15 15° SE 19:19:04 46° ENE 19:22:42 10° N
CZ-2C R/B 4.0 19:14:45 10° S 19:19:53 54° W 19:25:21 10° NNW
FREGAT/IRIS 2.8 19:20:39 31° ESE 19:21:18 38° ENE 19:23:45 10° N
Cosmos 2263 Rocket 2.7 19:16:47 10° SW 19:22:18 64° WNW 19:27:53 10° NNE
Nadezhda 4 Rocket 4.0 19:16:19 10° N 19:22:23 59° ENE 19:28:23 10° SSE
Cosmos 1072 Rocket 4.5 19:16:44 10° S 19:22:57 75° E 19:29:19 10° NNE
NOSS 3-2 (A) 4.0 19:15:58 10° NW 19:23:21 79° NE 19:30:19 16° SE
NOSS 2-2 (C) 3.0 19:21:09 10° SSW 19:24:38 66° SE 19:28:34 10° NE
MOS 1 4.3 19:21:50 10° SSE 19:27:28 66° ENE 19:33:08 10° N
Cosmos 1975 Rocket 4.4 19:24:28 10° NNW 19:28:34 42° W 19:32:38 10° SSW
Cosmos 1844 Rocket 3.1 19:24:04 10° S 19:29:09 38° ESE 19:34:17 10° NE
Cosmos 2034 Rocket 4.1 19:23:13 10° S 19:29:26 57° E 19:35:38 10° NNE
USA 102 3.4 19:24:07 10° SSE 19:24:06 10° SSE 19:29:58 39° S
Cosmos 2298 Rocket 4.1 19:26:26 10° S 19:31:35 52° ESE 19:36:46 10° NNE
ATLAS CENTAUR R/B 4.1 19:33:07 10° NW 19:34:30 12° NNW 19:35:52 10° N
SPOT 3 Rocket 4.0 19:32:57 23° ESE 19:35:46 43° ENE 19:40:38 10° N
USA 234 3.7 19:37:42 10° ENE 19:43:40 36° SE 19:49:36 10° SSW
Cosmos 1867 4.5 19:38:46 10° NW 19:43:58 46° WSW 19:49:02 10° S
Resurs 01 Rocket 2.4 19:42:54 30° E 19:44:02 35° ENE 19:48:04 10° N
Lacrosse 5 rocket 3.0 19:42:00 10° WNW 19:45:55 32° N 19:49:28 13° NE
MetOp-A 4.1 19:42:59 13° SSE 19:47:45 84° ENE 19:53:08 10° NNW
Cosmos 1833 Rocket 3.9 19:44:46 10° NNW 19:49:30 26° NE 19:51:25 22° ENE
Cosmos 372 Rocket 4.1 19:45:31 10° SSW 19:50:46 80° WNW 19:56:02 10° NNE
MOS 1 Rocket 4.1 19:48:16 10° N 19:52:38 50° WNW 19:56:49 10° SW
OBJECT-B 0.7 19:52:33 60° ESE 19:52:50 64° ENE 19:56:04 10° N
Meteor 1-15 Rocket 4.2 19:48:17 10° S 19:53:48 62° E 19:59:27 10° NNE
Cosmos 1626 3.1 19:53:10 10° N 19:56:03 31° NE 19:56:03 31° NE
NOSS 3-2 (C) 4.0 19:50:46 10° NW 19:58:11 82° NE 20:03:03 28° SE
SJ 16-02 4.5 19:55:45 10° W 19:58:16 15° NW 20:00:48 10° NNW
DMSP B5D2-2 4.0 19:53:57 10° NNE 19:59:17 76° ESE 20:04:34 10° S
ARIANE 5 R/B 3.5 20:01:02 30° ENE 20:01:02 30° ENE 20:04:52 10° N
Cosmos 2150 Rocket 4.0 19:55:53 10° SSW 20:01:15 82° ESE 20:06:44 10° NNE
Cosmos 1634 Rocket 4.2 19:59:03 27° SSE 20:02:04 46° E 20:07:57 10° NNE
Abrixas rocket 2.5 20:00:45 10° W 20:03:00 50° WSW 20:03:00 50° WSW
BREEZE-M TANK 3.2 19:55:59 10° WSW 20:03:50 46° S 20:04:38 41° SE
Okean 2 Rocket 4.1 20:03:45 10° SSW 20:08:06 48° WNW 20:12:27 10° N
Cosmos 2285 Rocket 4.0 20:02:56 10° S 20:09:05 59° ESE 20:15:20 10° NNE
Cosmos 1125 Rocket 3.4 20:03:50 10° S 20:09:06 67° ESE 20:14:24 10° NNE
Okean 1 Rocket 3.0 20:08:19 42° SSE 20:09:40 65° E 20:14:08 10° NNE
Cosmos 1627 Rocket 4.5 20:10:10 10° N 20:16:36 75° E 20:19:38 33° SSE
ERS-1 Rocket 4.3 20:17:26 24° ENE 20:17:26 24° ENE 20:21:13 10° N
Resurs 1-3 3.7 20:18:56 43° S 20:20:20 75° WSW 20:24:45 10° NNW
Cosmos 1092 Rocket 3.9 20:15:45 10° N 20:21:56 84° W 20:25:37 26° S
Meteor 2-13 Rocket 4.5 20:16:05 10° NNW 20:22:18 81° W 20:26:06 25° S
Meteor 2-5 Rocket 3.6 20:17:28 10° NNW 20:23:08 89° ENE 20:25:27 38° SSE
Cosmos 2195 Rocket 4.4 20:17:52 10° N 20:24:11 90° SSW 20:27:20 32° S
Cosmos 1805 3.2 20:24:12 82° SW 20:24:20 84° W 20:28:17 10° N
Cosmos 1674 3.6 20:22:10 10° NNW 20:25:53 47° W 20:27:00 35° SW
ATLAS 2AS CENTAUR R/B 3.2 20:19:50 10° S 20:27:12 44° ESE 20:34:32 10° NE
Cosmos 2026 Rocket 3.9 20:21:45 10° N 20:28:10 84° E 20:30:53 37° SSE
ISS -2.3 20:27:07 10° WSW 20:29:08 33° WSW 20:29:08 33° WSW
Cosmos 2082 Rocket 3.2 20:26:45 10° NNW 20:31:42 30° NE 20:32:16 30° ENE
BREEZE-M DEB (TANK) 4.3 20:29:20 10° WSW 20:33:29 79° SSE 20:50:57 10° ENE
Cosmos 1733 4.2 20:36:18 41° N 20:36:18 41° N 20:38:52 10° N
CENTAUR R/B 3.2 20:27:12 10° NW 20:35:12 75° SW 20:39:10 37° SSE
Meteor 1-22 Rocket 4.2 20:34:25 49° SSE 20:36:01 70° E 20:42:02 10° NNE
Cosmos 1892 Rocket 3.9 20:34:06 10° N 20:37:39 54° NNE 20:37:39 54° NNE
CZ-2C R/B 3.5 20:34:25 10° NNE 20:38:54 89° W 20:38:59 86° SW
Cosmos 1428 Rocket 4.4 20:33:32 10° N 20:39:52 86° W 20:42:07 43° S
ATLAS 3B R/B 2.9 20:35:45 10° NW 20:42:29 59° NE 20:44:10 47° E
COSMOS 2406 3.1 20:36:59 10° NNW 20:42:40 68° ENE 20:43:09 64° E
SPOT 1/Viking Rocket 3.8 20:43:21 54° ENE 20:43:21 54° ENE 20:48:10 10° N
SL-14 R/B 3.9 20:40:11 10° NNW 20:43:14 53° NNW 20:43:14 53° NNW
Cosmos 2279 Rocket 3.9 20:44:35 59° ESE 20:45:00 61° E 20:51:10 10° NNE
CZ-2C R/B 3.8 20:40:37 10° N 20:45:50 44° WNW 20:51:06 10° SW
Meteor 1-24 Rocket 3.7 20:40:23 10° NNW 20:45:53 79° W 20:47:08 55° S
Cosmos 1269 Rocket 4.0 20:42:05 10° NNW 20:47:25 78° WSW 20:48:00 69° SSW
Cosmos 2142 Rocket 4.4 20:47:06 58° SSE 20:48:19 74° E 20:54:33 10° NNE
Spot 2 Rocket 3.5 20:51:06 68° NE 20:51:06 68° NE 20:55:49 10° N
Exosat Rocket 3.9 20:49:53 10° SW 20:55:17 63° WNW 21:00:16 10° NNE
Cosmos 1766 4.5 20:58:56 41° NW 20:58:56 41° NW 21:02:17 10° N
Terra 3.3 21:02:35 27° NNE 21:02:35 27° NNE 21:05:20 10° N
MetOp-B 4.2 21:01:41 69° SW 21:02:04 72° WSW 21:07:27 10° NNW
Cosmos 2278 Rocket 4.2 21:07:57 16° NE 21:07:57 16° NE 21:09:03 10° NE
Cosmos 1844 4.2 20:58:45 10° SW 21:04:22 57° WNW 21:09:57 10° NNE
Lacrosse 4 Rocket 3.2 21:04:27 10° NNW 21:06:37 25° N 21:06:37 25° N
Cosmos 909 Rocket 4.2 21:02:33 10° NW 21:09:09 58° NE 21:09:31 57° ENE
Okean 1-7 Rocket 4.4 21:04:54 10° NNW 21:08:19 50° NNW 21:08:19 50° NNW
Cosmos 1844 Rocket 3.8 21:07:43 10° WSW 21:13:00 42° NW 21:18:20 10° NNE
Resurs 01 Rocket 3.2 21:20:28 30° W 21:20:32 30° W 21:24:29 10° NNW
Cosmos 2251 Rocket 4.1 21:15:39 10° NNW 21:19:53 51° N 21:19:53 51° N
Lacrosse 5 rocket 3.1 21:21:54 10° NW 21:25:05 32° NNW 21:25:05 32° NNW
USA 234 3.2 21:24:43 43° NE 21:27:07 85° NNW 21:33:41 10° WSW
SPOT 5 3.7 21:28:43 50° N 21:28:43 50° N 21:32:38 10° NNW
Cosmos 2266 Rocket 4.0 21:24:18 10° N 21:29:34 67° NNE 21:29:34 67° NNE
Cosmos 1833 Rocket 3.1 21:28:20 10° NNW 21:33:07 60° WNW 21:33:07 60° WNW
ARIANE 5 R/B 4.4 21:38:35 28° WNW 21:38:35 28° WNW 21:41:24 10° NNW
Cosmos 1655 Rocket 4.2 21:35:40 10° NNW 21:41:39 67° W 21:41:39 67° W
NOSS 3-4 (A) 4.5 21:57:18 38° NNE 21:57:18 38° NNE 22:01:17 10° NE
NOSS 3-4 (C) 4.5 21:57:30 37° NNE 21:57:30 37° NNE 22:01:24 10° NE
ERS-1 Rocket 4.3 21:57:26 37° NW 21:57:26 37° NW 22:00:40 10° NNW
Cosmos 2082 Rocket 3.4 22:10:38 10° NW 22:14:06 37° NW 22:14:06 37° NW
ATLAS 2AS CENTAUR R/B 3.3 22:10:09 10° WSW 22:18:04 64° NW 22:25:51 10° NE
ATLAS 3B R/B 3.8 22:26:41 10° NW 22:31:25 36° W 22:31:25 36° W
Terra 4.2 22:41:29 20° NW 22:41:29 20° NW 22:43:08 10° NNW
Cosmos 2278 Rocket 3.8 22:49:46 30° N 22:49:46 30° N 22:53:11 10° NNE
USA 234 4.4 23:03:35 10° ENE 23:12:14 35° WNW 23:16:05 10° W
CZ-4C R/B 4.2 23:34:17 25° NNE 23:34:17 25° NNE 23:36:58 10° NE
